{"data":{"norad_id":59249,"intl_designator":"2024-049U","name":"STARLINK-31426","alt_names":[],"object_type":"PAYLOAD","status":"ACTIVE","operator":null,"country":"US","launch_date":"2024-03-16","launch_site_code":"AFETR","launch_vehicle":null,"mission":null,"orbit_class":"UNKNOWN","rcs_meters":null,"size_class":null,"mass_kg":null,"dimensions":null,"purposes":["comms"],"wikipedia_slug":null,"has_3d_model":false,"image_url":null,"decayed_at":null,"tle_current":{"epoch":"2026-09-19T00:53:09.125088Z","epoch_age_seconds":285182,"freshness":"STALE","line1":"1 59249U 24049U   26262.03691117 -.00002209  00000+0 -70794-4 0  9999","line2":"2 59249  43.0037 131.8091 0001394 266.9269  93.1423 15.27571645141964","mean_motion":15.27571645,"eccentricity":0.0001394,"inclination_deg":43.0037,"raan_deg":131.8091,"arg_perigee_deg":266.9269,"mean_anomaly_deg":93.1423,"bstar":-7.0794e-5,"rev_number":14196,"period_min":94.267264302356,"perigee_km":482.11766120008,"apogee_km":484.03056685867,"semimajor_km":6861.2111140294,"source":"CELESTRAK","updated_at":"2026-09-21T09:00:34.078496Z"}}}